User: anonymous   Login
Location: Bothell
(47.7630°N, 122.2040°W)
Time: 04:08:34
(UTC-08:00)
Language:

Oscar 16 - Orbit

View from above orbital plane
View from above orbital plane
View from above satellite
View from above satellite

Ground track
Ground track

The orbit data is extracted from the following two-line orbital elements,

1 20439U 90005D   14327.15487657  .00000245  00000-0  10635-3 0  1779
2 20439 098.5223 261.5953 0011708 054.2230 352.1347 14.32433652297245
Epoch (UTC): 23 November 2014 03:43:01
Eccentricity: 0.0011708
inclination: 98.5223°
perigee height: 775 km
apogee height: 792 km
right ascension of ascending node: 261.5953°
argument of perigee: 54.2230°
revolutions per day: 14.32433652
mean anomaly at epoch: 352.1347°
orbit number at epoch: 29724

The dashed part of the orbit path shows where the satellite is in the earth's shadow,  

DLR